Regional Weather Roundup
Issued by NWS Kansas City/Pleasant Hill, MO

Home | Current Version | Previous Version | Text Only | Print | Product List | Glossary On
Versions: 1 2 3 4 5 6 7 8 9 10 11 12 13 14 15 16 17 18 19 20 21 22 23 24 25 26 27 28 29 30 31 32 33 34 35 36 37 38 39 40 41 42 43 44 45 46 47 48 49 50
000
ASUS43 KEAX 132210
RWREAX

WEATHER ROUNDUP FOR EASTERN KANSAS AND NORTHWEST MISSOURI
NATIONAL WEATHER SERVICE KANSAS CITY/PLEASANT HILL MO
400 PM CST FRI DEC 13 2019

KSZ040-057-103>105-MOZ028-029-037-043-132300-
...KANSAS CITY METROPOLITAN AREA...

CITY           SKY/WX    TMP DP  RH WIND       PRES   REMARKS
K.C. INTL      MOCLDY    53  38  56 S9        29.76F
K.C. DOWNTOWN  MOCLDY    53  36  52 S5        29.76F
LEES SUMMIT    CLOUDY    51  36  56 S6        29.78S
OLATHE - IXD   MOCLDY    54  37  52 S8        29.77S
OLATHE - OJC   CLOUDY    54  38  54 SW7       29.76F
LAWRENCE       CLEAR     56  37  49 SW9       29.76S

$$

MOZ001>008-011>017-020>025-030>033-038>040-044>046-053-054-132300-
...NORTHERN AND CENTRAL MISSOURI...

CITY           SKY/WX    TMP DP  RH WIND       PRES   REMARKS
ST. JOSEPH     CLEAR     51  37  58 W3        29.78R
MOSBY          MOCLDY    52  36  54 CALM      29.78S
WARRENSBURG      N/A    N/A N/A N/A MISG        N/A
WHITEMAN AFB   MOCLDY    52  35  53 SW8       29.75S
CLINTON        NOT AVBL
SEDALIA        CLEAR     52  34  50 SW7       29.81S
WARSAW         NOT AVBL
CHILLICOTHE      N/A     49  35  58 CALM      29.80S
KIRKSVILLE     CLEAR     47  31  53 CALM      29.81S

$$

MOZ041-047>049-056>058-063>065-088>090-097-132300-
...EASTERN AND SOUTHERN MISSOURI...

CITY           SKY/WX    TMP DP  RH WIND       PRES   REMARKS
ST. LOUIS INTL MOCLDY    48  27  44 S5        29.83S
SPIRIT OF STL  MOCLDY    48  31  51 CALM      29.83R
COLUMBIA       CLEAR     52  31  44 S6        29.81S
JEFFERSON CITY CLEAR     54  31  41 S5        29.82S
ROLLA          CLEAR     49  27  42 SW5       29.82S
OSAGE BEACH    CLEAR     53  32  44 S6        29.82S
SPRINGFIELD    CLEAR     52  35  52 S3        29.79F
BRANSON        MOCLDY    52  32  46 CALM      29.83R
JOPLIN         CLEAR     54  37  52 SW7       29.81R
WEST PLAINS    CLEAR     48  31  51 CALM      29.83S

$$

IAZ060-094-KSZ022-034>040-054-083-096-NEZ052-066-093-132300-
...KANSAS...SOUTHEAST NEBRASKA AND IOWA...

CITY           SKY/WX    TMP DP  RH WIND       PRES   REMARKS
TOPEKA         CLEAR     55  36  48 S5        29.74F
MANHATTAN      CLEAR     54  33  45 W6        29.75S
EMPORIA        CLEAR     58  33  39 SW12      29.75S
CHANUTE        CLEAR     57  39  51 SW9       29.79S
WICHITA        MOSUNNY   57  33  40 S9        29.77F
OMAHA          MOCLDY    34  29  82 N7        29.81R HAZE    WCI  28
LINCOLN        CLEAR     41  29  62 N8        29.81R
FALLS CITY     CLEAR     44  34  67 NE6       29.76F
LAMONI         PTCLDY    41  29  62 SE5       29.79S
DES MOINES     MOCLDY    31  24  75 N3        29.82S

$$




USA.gov is the U.S. government's official web portal to all federal, state and local government web resources and services.